,,Stat6,,Stat2,,Stat8,,Stat9,,Stat10,,Wind1,,Wind1,
time,status,PA1M_AVG,status,PR1M_SUM,status,RH1M_AVG,status,SR1M_AVG,status,TA1M_AVG,status,W1dAve1m,status,W1sAve1m,
2008-07-05, 00:00:00,VALID,918.249,VALID,0,VALID,100,VALID,-0.101885,VALID,19.1784,VALID,45,VALID,0,
2008-07-05, 00:01:00,VALID,918.255,VALID,0,VALID,100,VALID,-0.0849042,VALID,19.1527,VALID,45,VALID,0,
2008-07-05, 00:02:00,VALID,918.242,VALID,0,VALID,100,VALID,-0.0849042,VALID,19.1882,VALID,45,VALID,0,
2008-07-05, 00:03:00,VALID,918.231,VALID,0,VALID,100,VALID,-0.0679233,VALID,19.2728,VALID,45,VALID,0,
2008-07-05, 00:04:00,VALID,918.215,VALID,0,VALID,100,VALID,-0.0509425,VALID,19.2563,VALID,45,VALID,0,
2008-07-05, 00:05:00,VALID,918.209,VALID,0,VALID,100,VALID,-0.0679233,VALID,19.1984,VALID,45,VALID,0,
2008-07-05, 00:06:00,VALID,918.181,VALID,0,VALID,100,VALID,-0.101885,VALID,19.133,VALID,45,VALID,0,
2008-07-05, 00:07:00,VALID,918.152,VALID,0,VALID,100,VALID,-0.0679233,VALID,19.0779,VALID,45,VALID,0,
2008-07-05, 00:08:00,VALID,918.132,VALID,0,VALID,100,VALID,-0.0339617,VALID,19.0449,VALID,45,VALID,0,
2008-07-05, 00:09:00,VALID,918.122,VALID,0,VALID,100,VALID,0,VALID,19.0277,VALID,45,VALID,0,
2008-07-05, 00:10:00,VALID,918.106,VALID,0,VALID,100,VALID,0.0169808,VALID,19.0312,VALID,45,VALID,0,
2008-07-05, 00:11:00,VALID,918.091,VALID,0,VALID,100,VALID,0.0169808,VALID,19.0507,VALID,45,VALID,0,
2008-07-05, 00:12:00,VALID,918.075,VALID,0,VALID,100,VALID,0,VALID,19.0602,VALID,45,VALID,0,
2008-07-05, 00:13:00,VALID,918.077,VALID,0,VALID,100,VALID,-0.101885,VALID,19.0941,VALID,45,VALID,0,
2008-07-05, 00:14:00,VALID,918.07,VALID,0,VALID,100,VALID,-0.101885,VALID,19.1465,VALID,45,VALID,0,
2008-07-05, 00:15:00,VALID,918.055,VALID,0,VALID,100,VALID,-0.0679233,VALID,19.1687,VALID,45,VALID,0,
2008-07-05, 00:16:00,VALID,918.039,VALID,0,VALID,100,VALID,-0.0679233,VALID,19.1747,VALID,45,VALID,0,
2008-07-05, 00:17:00,VALID,918.025,VALID,0,VALID,100,VALID,-0.0509425,VALID,19.2273,VALID,45,VALID,0,
2008-07-05, 00:18:00,VALID,918.018,VALID,0,VALID,100,VALID,-0.101885,VALID,19.2822,VALID,45,VALID,0,
2008-07-05, 00:19:00,VALID,918.006,VALID,0,VALID,99.9723,VALID,-0.0849042,VALID,19.2174,VALID,45,VALID,0,
2008-07-05, 00:20:00,VALID,918.001,VALID,0,VALID,99.8283,VALID,-0.0679233,VALID,19.0225,VALID,45,VALID,0,
2008-07-05, 00:21:00,VALID,917.99,VALID,0,VALID,100,VALID,-0.101885,VALID,19.0127,VALID,45,VALID,0,
2008-07-05, 00:22:00,VALID,917.981,VALID,0,VALID,100,VALID,-0.0509425,VALID,19.0549,VALID,45,VALID,0,
2008-07-05, 00:23:00,VALID,917.976,VALID,0,VALID,100,VALID,-0.0679233,VALID,19.1003,VALID,45,VALID,0,
2008-07-05, 00:24:00,VALID,917.981,VALID,0,VALID,100,VALID,-0.0339617,VALID,19.0804,VALID,45,VALID,0,
2008-07-05, 00:25:00,VALID,917.986,VALID,0,VALID,99.7826,VALID,-0.0679233,VALID,18.9414,VALID,45,VALID,0,
2008-07-05, 00:26:00,VALID,917.984,VALID,0,VALID,99.97,VALID,-0.0509425,VALID,18.8633,VALID,45,VALID,0,
2008-07-05, 00:27:00,VALID,917.963,VALID,0,VALID,100,VALID,-0.0339617,VALID,18.9159,VALID,45,VALID,0,
2008-07-05, 00:28:00,VALID,917.957,VALID,0,VALID,100,VALID,-0.101885,VALID,18.9092,VALID,45,VALID,0,
2008-07-05, 00:29:00,VALID,917.945,VALID,0,VALID,100,VALID,-0.101885,VALID,18.841,VALID,45,VALID,0,
2008-07-05, 00:30:00,VALID,917.93,VALID,0,VALID,100,VALID,-0.101885,VALID,18.835,VALID,45,VALID,0,
2008-07-05, 00:31:00,VALID,917.923,VALID,0,VALID,100,VALID,-0.101885,VALID,18.7986,VALID,45,VALID,0.0456597,
2008-07-05, 00:32:00,VALID,917.895,VALID,0,VALID,100,VALID,-0.0509425,VALID,18.7956,VALID,45,VALID,0.0113467,
2008-07-05, 00:33:00,VALID,917.883,VALID,0,VALID,100,VALID,-0.0509425,VALID,18.8542,VALID,45,VALID,0,
2008-07-05, 00:34:00,VALID,917.866,VALID,0,VALID,100,VALID,-0.0509425,VALID,18.877,VALID,80,VALID,0,
2008-07-05, 00:35:00,VALID,917.857,VALID,0,VALID,100,VALID,-0.0679233,VALID,18.9676,VALID,101,VALID,0,
2008-07-05, 00:36:00,VALID,917.843,VALID,0,VALID,100,VALID,-0.101885,VALID,19.0681,VALID,101,VALID,0,
2008-07-05, 00:37:00,VALID,917.829,VALID,0,VALID,100,VALID,-0.0679233,VALID,19.1592,VALID,101,VALID,0,
2008-07-05, 00:38:00,VALID,917.825,VALID,0,VALID,100,VALID,-0.101885,VALID,19.2171,VALID,101,VALID,0,
2008-07-05, 00:39:00,VALID,917.813,VALID,0,VALID,100,VALID,-0.101885,VALID,19.2725,VALID,101,VALID,0,
2008-07-05, 00:40:00,VALID,917.811,VALID,0,VALID,100,VALID,-0.0849042,VALID,19.2466,VALID,101,VALID,0,
2008-07-05, 00:41:00,VALID,917.795,VALID,0,VALID,100,VALID,-0.0849042,VALID,19.2336,VALID,101,VALID,0,
2008-07-05, 00:42:00,VALID,917.797,VALID,0,VALID,100,VALID,-0.118866,VALID,19.2431,VALID,101,VALID,0,
2008-07-05, 00:43:00,VALID,917.791,VALID,0,VALID,100,VALID,-0.0339617,VALID,19.2723,VALID,101,VALID,0,
2008-07-05, 00:44:00,VALID,917.785,VALID,0,VALID,100,VALID,-0.0339617,VALID,19.3339,VALID,101,VALID,0,
2008-07-05, 00:45:00,VALID,917.79,VALID,0,VALID,100,VALID,-0.0679233,VALID,19.3696,VALID,101,VALID,0,
2008-07-05, 00:46:00,VALID,917.79,VALID,0,VALID,100,VALID,-0.0849042,VALID,19.3659,VALID,101,VALID,0,
2008-07-05, 00:47:00,VALID,917.8,VALID,0,VALID,100,VALID,-0.0339617,VALID,19.3144,VALID,101,VALID,0,
2008-07-05, 00:48:00,VALID,917.786,VALID,0,VALID,100,VALID,-0.101885,VALID,19.2755,VALID,101,VALID,0.0920351,
2008-07-05, 00:49:00,VALID,917.787,VALID,0,VALID,100,VALID,-0.0339617,VALID,19.2625,VALID,120,VALID,0.174352,
2008-07-05, 00:50:00,VALID,917.773,VALID,0,VALID,100,VALID,-0.0679233,VALID,19.2139,VALID,137,VALID,0.0024858,
2008-07-05, 00:51:00,VALID,917.755,VALID,0,VALID,100,VALID,-0.0849042,VALID,19.168,VALID,136,VALID,0,
2008-07-05, 00:52:00,VALID,917.725,VALID,0,VALID,100,VALID,-0.0679233,VALID,19.1654,VALID,138,VALID,0,
2008-07-05, 00:53:00,VALID,917.703,VALID,0,VALID,99.9825,VALID,-0.0169808,VALID,19.136,VALID,159,VALID,0,
2008-07-05, 00:54:00,VALID,917.683,VALID,0,VALID,99.9952,VALID,0.0509425,VALID,19.0732,VALID,150,VALID,0.243963,
2008-07-05, 00:55:00,VALID,917.669,VALID,0,VALID,100,VALID,0.0339617,VALID,19.0342,VALID,149,VALID,0.065952,
2008-07-05, 00:56:00,VALID,917.642,VALID,0,VALID,100,VALID,0.0679233,VALID,18.9946,VALID,157,VALID,0,
2008-07-05, 00:57:00,VALID,917.646,VALID,0,VALID,100,VALID,0.0509425,VALID,18.9819,VALID,157,VALID,0,
2008-07-05, 00:58:00,VALID,917.63,VALID,0,VALID,100,VALID,0.0339617,VALID,18.9626,VALID,150,VALID,0,
2008-07-05, 00:59:00,VALID,917.622,VALID,0,VALID,100,VALID,0.0169808,VALID,18.9404,VALID,148,VALID,0.177401,
2008-07-05, 01:00:00,VALID,917.628,VALID,0,VALID,100,VALID,0,VALID,18.9239,VALID,156,VALID,0.417878,
2008-07-05, 01:01:00,VALID,917.619,VALID,0,VALID,100,VALID,0.0339617,VALID,18.898,VALID,150,VALID,0.65952,
2008-07-05, 01:02:00,VALID,917.621,VALID,0,VALID,100,VALID,0.0509425,VALID,18.8586,VALID,148,VALID,1.31319,
2008-07-05, 01:03:00,VALID,917.618,VALID,0,VALID,100,VALID,0.0339617,VALID,18.8461,VALID,141,VALID,1.20082,
2008-07-05, 01:04:00,VALID,917.612,VALID,0,VALID,100,VALID,0.0339617,VALID,18.8167,VALID,138,VALID,1.34617,
2008-07-05, 01:05:00,VALID,917.599,VALID,0,VALID,100,VALID,0.0509425,VALID,18.7907,VALID,139,VALID,1.09108,
2008-07-05, 01:06:00,VALID,917.593,VALID,0,VALID,100,VALID,0.0509425,VALID,18.7715,VALID,135,VALID,0.927689,
2008-07-05, 01:07:00,VALID,917.588,VALID,0,VALID,100,VALID,0.0509425,VALID,18.7585,VALID,144,VALID,1.31504,
2008-07-05, 01:08:00,VALID,917.571,VALID,0,VALID,100,VALID,0,VALID,18.7849,VALID,145,VALID,1.27289,
2008-07-05, 01:09:00,VALID,917.552,VALID,0,VALID,100,VALID,-0.0679233,VALID,18.7887,VALID,150,VALID,1.20778,
2008-07-05, 01:10:00,VALID,917.536,VALID,0,VALID,100,VALID,-0.0679233,VALID,18.8343,VALID,154,VALID,1.61228,
2008-07-05, 01:11:00,VALID,917.535,VALID,0,VALID,100,VALID,-0.0339617,VALID,18.8573,VALID,152,VALID,1.63699,
2008-07-05, 01:12:00,VALID,917.527,VALID,0,VALID,100,VALID,-0.0849042,VALID,18.8698,VALID,150,VALID,1.09301,
2008-07-05, 01:13:00,VALID,917.534,VALID,0,VALID,100,VALID,-0.0679233,VALID,18.8832,VALID,149,VALID,1.03164,
2008-07-05, 01:14:00,VALID,917.527,VALID,0,VALID,100,VALID,-0.0169808,VALID,18.889,VALID,155,VALID,1.55575,
2008-07-05, 01:15:00,VALID,917.531,VALID,0,VALID,100,VALID,-0.0509425,VALID,18.9254,VALID,150,VALID,1.45052,
2008-07-05, 01:16:00,VALID,917.529,VALID,0,VALID,100,VALID,-0.0849042,VALID,18.9353,VALID,157,VALID,1.28457,
2008-07-05, 01:17:00,VALID,917.529,VALID,0,VALID,100,VALID,-0.0679233,VALID,18.9384,VALID,156,VALID,1.61049,
2008-07-05, 01:18:00,VALID,917.52,VALID,0,VALID,100,VALID,-0.0509425,VALID,18.9543,VALID,161,VALID,1.21042,
2008-07-05, 01:19:00,VALID,917.516,VALID,0,VALID,100,VALID,-0.0509425,VALID,18.9508,VALID,159,VALID,1.28068,
2008-07-05, 01:20:00,VALID,917.51,VALID,0,VALID,100,VALID,-0.0679233,VALID,18.9643,VALID,162,VALID,1.42588,
2008-07-05, 01:21:00,VALID,917.494,VALID,0,VALID,100,VALID,-0.0849042,VALID,18.9738,VALID,152,VALID,1.22565,
2008-07-05, 01:22:00,VALID,917.484,VALID,0,VALID,100,VALID,-0.0339617,VALID,18.9743,VALID,161,VALID,1.09635,
2008-07-05, 01:23:00,VALID,917.47,VALID,0,VALID,100,VALID,-0.0679233,VALID,18.974,VALID,160,VALID,1.48906,
2008-07-05, 01:24:00,VALID,917.434,VALID,0,VALID,100,VALID,-0.0849042,VALID,19.0032,VALID,162,VALID,1.47332,
2008-07-05, 01:25:00,VALID,917.425,VALID,0,VALID,100,VALID,-0.0849042,VALID,19.0387,VALID,164,VALID,1.27176,
2008-07-05, 01:26:00,VALID,917.421,VALID,0,VALID,100,VALID,-0.0849042,VALID,19.0517,VALID,161,VALID,1.51029,
2008-07-05, 01:27:00,VALID,917.407,VALID,0,VALID,100,VALID,-0.0339617,VALID,19.0642,VALID,171,VALID,1.16069,
2008-07-05, 01:28:00,VALID,917.399,VALID,0,VALID,100,VALID,-0.0509425,VALID,19.0903,VALID,159,VALID,1.36849,
2008-07-05, 01:29:00,VALID,917.395,VALID,0,VALID,100,VALID,-0.0849042,VALID,19.1265,VALID,163,VALID,1.48038,
2008-07-05, 01:30:00,VALID,917.394,VALID,0,VALID,100,VALID,0,VALID,19.1747,VALID,166,VALID,1.10503,
2008-07-05, 01:31:00,VALID,917.392,VALID,0,VALID,100,VALID,-0.0339617,VALID,19.2009,VALID,162,VALID,1.53052,
2008-07-05, 01:32:00,VALID,917.397,VALID,0,VALID,100,VALID,-0.0339617,VALID,19.2331,VALID,163,VALID,1.22359,
2008-07-05, 01:33:00,VALID,917.396,VALID,0,VALID,100,VALID,-0.0169808,VALID,19.2553,VALID,170,VALID,1.17151,
2008-07-05, 01:34:00,VALID,917.393,VALID,0,VALID,100,VALID,-0.0339617,VALID,19.2815,VALID,155,VALID,0.899858,
2008-07-05, 01:35:00,VALID,917.407,VALID,0,VALID,100,VALID,-0.0679233,VALID,19.3112,VALID,156,VALID,0.271839,
2008-07-05, 01:36:00,VALID,917.399,VALID,0,VALID,100,VALID,-0.0849042,VALID,19.3209,VALID,167,VALID,1.1191,
2008-07-05, 01:37:00,VALID,917.374,VALID,0,VALID,100,VALID,-0.0679233,VALID,19.3267,VALID,194,VALID,0.951451,
2008-07-05, 01:38:00,VALID,917.384,VALID,0,VALID,100,VALID,-0.0339617,VALID,19.3466,VALID,180,VALID,0.294158,
2008-07-05, 01:39:00,VALID,917.386,VALID,0,VALID,100,VALID,-0.0509425,VALID,19.3372,VALID,126,VALID,0.00223214,
2008-07-05, 01:40:00,VALID,917.387,VALID,0,VALID,100,VALID,-0.0509425,VALID,19.3466,VALID,148,VALID,0.461868,
2008-07-05, 01:41:00,VALID,917.352,VALID,0,VALID,100,VALID,-0.0679233,VALID,19.3731,VALID,162,VALID,0.208333,
2008-07-05, 01:42:00,VALID,917.339,VALID,0,VALID,100,VALID,-0.0509425,VALID,19.3826,VALID,165,VALID,0,
2008-07-05, 01:43:00,VALID,917.324,VALID,0,VALID,100,VALID,-0.0849042,VALID,19.3501,VALID,147,VALID,0.0653582,
2008-07-05, 01:44:00,VALID,917.323,VALID,0,VALID,100,VALID,-0.0169808,VALID,19.3307,VALID,115,VALID,0.413517,
2008-07-05, 01:45:00,VALID,917.305,VALID,0,VALID,100,VALID,-0.0339617,VALID,19.3402,VALID,140,VALID,0.845749,
2008-07-05, 01:46:00,VALID,917.301,VALID,0,VALID,100,VALID,-0.0339617,VALID,19.3526,VALID,160,VALID,0.355841,
2008-07-05, 01:47:00,VALID,917.312,VALID,0,VALID,100,VALID,-0.0509425,VALID,19.3594,VALID,150,VALID,0,
2008-07-05, 01:48:00,VALID,917.309,VALID,0,VALID,100,VALID,-0.0849042,VALID,19.3763,VALID,146,VALID,0.00117188,
2008-07-05, 01:49:00,VALID,917.322,VALID,0,VALID,100,VALID,-0.0509425,VALID,19.3726,VALID,156,VALID,0,
2008-07-05, 01:50:00,VALID,917.333,VALID,0,VALID,100,VALID,-0.0849042,VALID,19.3571,VALID,164,VALID,0,
2008-07-05, 01:51:00,VALID,917.326,VALID,0,VALID,100,VALID,-0.0509425,VALID,19.295,VALID,164,VALID,0,
2008-07-05, 01:52:00,VALID,917.339,VALID,0,VALID,100,VALID,-0.0339617,VALID,19.253,VALID,164,VALID,0,
2008-07-05, 01:53:00,VALID,917.33,VALID,0,VALID,100,VALID,-0.0679233,VALID,19.2303,VALID,164,VALID,0,
2008-07-05, 01:54:00,VALID,917.332,VALID,0,VALID,100,VALID,-0.0509425,VALID,19.2039,VALID,164,VALID,0,
2008-07-05, 01:55:00,VALID,917.33,VALID,0,VALID,100,VALID,-0.0679233,VALID,19.1874,VALID,164,VALID,0.130952,
2008-07-05, 01:56:00,VALID,917.314,VALID,0,VALID,100,VALID,-0.0339617,VALID,19.1902,VALID,164,VALID,0.0480183,
2008-07-05, 01:57:00,VALID,917.283,VALID,0,VALID,100,VALID,-0.101885,VALID,19.1937,VALID,180,VALID,0,
2008-07-05, 01:58:00,VALID,917.282,VALID,0,VALID,100,VALID,-0.0509425,VALID,19.1742,VALID,180,VALID,0,
2008-07-05, 01:59:00,VALID,917.241,VALID,0,VALID,100,VALID,-0.0339617,VALID,19.1385,VALID,174,VALID,0,
2008-07-05, 02:00:00,VALID,917.221,VALID,0,VALID,100,VALID,-0.0679233,VALID,19.0938,VALID,174,VALID,0,
2008-07-05, 02:01:00,VALID,917.193,VALID,0,VALID,100,VALID,-0.101885,VALID,19.0679,VALID,174,VALID,0,
2008-07-05, 02:02:00,VALID,917.166,VALID,0,VALID,99.9369,VALID,-0.0849042,VALID,19.0025,VALID,174,VALID,0,
2008-07-05, 02:03:00,VALID,917.139,VALID,0,VALID,99.545,VALID,-0.0339617,VALID,18.8663,VALID,174,VALID,0,
2008-07-05, 02:04:00,VALID,917.104,VALID,0,VALID,99.8362,VALID,-0.0679233,VALID,18.7889,VALID,174,VALID,0,
2008-07-05, 02:05:00,VALID,917.081,VALID,0,VALID,99.8578,VALID,-0.0169808,VALID,18.6647,VALID,174,VALID,0,
2008-07-05, 02:06:00,VALID,917.062,VALID,0,VALID,100,VALID,-0.0509425,VALID,18.6255,VALID,174,VALID,0,
2008-07-05, 02:07:00,VALID,917.037,VALID,0,VALID,100,VALID,-0.0339617,VALID,18.6065,VALID,174,VALID,0,
2008-07-05, 02:08:00,VALID,917.024,VALID,0,VALID,100,VALID,-0.0509425,VALID,18.6327,VALID,174,VALID,0,
2008-07-05, 02:09:00,VALID,917.029,VALID,0,VALID,100,VALID,-0.0849042,VALID,18.6397,VALID,174,VALID,0,
2008-07-05, 02:10:00,VALID,917.037,VALID,0,VALID,100,VALID,-0.0509425,VALID,18.623,VALID,174,VALID,0,
2008-07-05, 02:11:00,VALID,917.028,VALID,0,VALID,100,VALID,-0.0339617,VALID,18.5454,VALID,174,VALID,0,
2008-07-05, 02:12:00,VALID,917.032,VALID,0,VALID,100,VALID,-0.0509425,VALID,18.5486,VALID,174,VALID,0,
2008-07-05, 02:13:00,VALID,917.035,VALID,0,VALID,100,VALID,-0.0339617,VALID,18.6,VALID,172,VALID,0,
2008-07-05, 02:14:00,VALID,917.024,VALID,0,VALID,100,VALID,-0.0679233,VALID,18.6617,VALID,149,VALID,0,
2008-07-05, 02:15:00,VALID,917.018,VALID,0,VALID,100,VALID,-0.0169808,VALID,18.6906,VALID,115,VALID,0,
2008-07-05, 02:16:00,VALID,917.012,VALID,0,VALID,100,VALID,-0.0849042,VALID,18.6133,VALID,88,VALID,0,
2008-07-05, 02:17:00,VALID,917.023,VALID,0,VALID,100,VALID,-0.0679233,VALID,18.5748,VALID,86,VALID,0,
2008-07-05, 02:18:00,VALID,917.009,VALID,0,VALID,100,VALID,-0.0509425,VALID,18.5546,VALID,86,VALID,0,
2008-07-05, 02:19:00,VALID,917.003,VALID,0,VALID,100,VALID,-0.0679233,VALID,18.5651,VALID,86,VALID,0,
2008-07-05, 02:20:00,VALID,916.989,VALID,0,VALID,100,VALID,-0.0509425,VALID,18.591,VALID,86,VALID,0,
2008-07-05, 02:21:00,VALID,916.98,VALID,0,VALID,100,VALID,-0.0679233,VALID,18.6197,VALID,86,VALID,0,
2008-07-05, 02:22:00,VALID,916.973,VALID,0,VALID,100,VALID,-0.0679233,VALID,18.636,VALID,86,VALID,0,
2008-07-05, 02:23:00,VALID,916.971,VALID,0,VALID,100,VALID,-0.0509425,VALID,18.5968,VALID,86,VALID,0,
2008-07-05, 02:24:00,VALID,916.949,VALID,0,VALID,100,VALID,-0.0679233,VALID,18.5748,VALID,86,VALID,0,
2008-07-05, 02:25:00,VALID,916.938,VALID,0,VALID,100,VALID,-0.0849042,VALID,18.5519,VALID,86,VALID,0,
2008-07-05, 02:26:00,VALID,916.936,VALID,0,VALID,100,VALID,-0.0679233,VALID,18.5065,VALID,95,VALID,0,
2008-07-05, 02:27:00,VALID,916.941,VALID,0,VALID,100,VALID,-0.101885,VALID,18.4833,VALID,118,VALID,0,
2008-07-05, 02:28:00,VALID,916.934,VALID,0,VALID,100,VALID,-0.0509425,VALID,18.4735,VALID,118,VALID,0,
2008-07-05, 02:29:00,VALID,916.935,VALID,0,VALID,100,VALID,-0.0679233,VALID,18.4576,VALID,118,VALID,0,
2008-07-05, 02:30:00,VALID,916.927,VALID,0,VALID,100,VALID,-0.0849042,VALID,18.4548,VALID,123,VALID,0,
2008-07-05, 02:31:00,VALID,916.907,VALID,0,VALID,100,VALID,-0.101885,VALID,18.4284,VALID,123,VALID,0,
2008-07-05, 02:32:00,VALID,916.892,VALID,0,VALID,100,VALID,-0.0849042,VALID,18.4122,VALID,123,VALID,0.0167683,
2008-07-05, 02:33:00,VALID,916.885,VALID,0,VALID,100,VALID,-0.0849042,VALID,18.3927,VALID,122,VALID,0.966264,
2008-07-05, 02:34:00,VALID,916.87,VALID,0,VALID,100,VALID,-0.101885,VALID,18.4091,VALID,121,VALID,1.11138,
2008-07-05, 02:35:00,VALID,916.851,VALID,0,VALID,100,VALID,-0.0679233,VALID,18.4314,VALID,123,VALID,0.865189,
2008-07-05, 02:36:00,VALID,916.817,VALID,0,VALID,100,VALID,-0.0509425,VALID,18.474,VALID,121,VALID,0.985618,
2008-07-05, 02:37:00,VALID,916.832,VALID,0,VALID,100,VALID,-0.0339617,VALID,18.4868,VALID,120,VALID,0.797602,
2008-07-05, 02:38:00,VALID,916.833,VALID,0,VALID,100,VALID,-0.0169808,VALID,18.4965,VALID,122,VALID,0.886161,
2008-07-05, 02:39:00,VALID,916.825,VALID,0,VALID,100,VALID,-0.101885,VALID,18.4935,VALID,122,VALID,0.77939,
2008-07-05, 02:40:00,VALID,916.818,VALID,0,VALID,100,VALID,-0.0849042,VALID,18.4805,VALID,122,VALID,0.782315,
2008-07-05, 02:41:00,VALID,916.805,VALID,0,VALID,100,VALID,-0.101885,VALID,18.4583,VALID,123,VALID,0.765039,
2008-07-05, 02:42:00,VALID,916.795,VALID,0,VALID,100,VALID,-0.101885,VALID,18.4291,VALID,122,VALID,0.770461,
2008-07-05, 02:43:00,VALID,916.786,VALID,0,VALID,100,VALID,-0.101885,VALID,18.4418,VALID,125,VALID,0.998224,
2008-07-05, 02:44:00,VALID,916.762,VALID,0,VALID,100,VALID,-0.101885,VALID,18.461,VALID,122,VALID,0.993786,
2008-07-05, 02:45:00,VALID,916.738,VALID,0,VALID,100,VALID,-0.0679233,VALID,18.4546,VALID,127,VALID,1.30632,
2008-07-05, 02:46:00,VALID,916.722,VALID,0,VALID,100,VALID,-0.0849042,VALID,18.4777,VALID,134,VALID,1.14435,
2008-07-05, 02:47:00,VALID,916.704,VALID,0,VALID,100,VALID,-0.0849042,VALID,18.4483,VALID,128,VALID,0.866629,
2008-07-05, 02:48:00,VALID,916.7,VALID,0,VALID,100,VALID,-0.0679233,VALID,18.4061,VALID,123,VALID,0.801235,
2008-07-05, 02:49:00,VALID,916.69,VALID,0,VALID,100,VALID,-0.0509425,VALID,18.3762,VALID,119,VALID,0.698509,
2008-07-05, 02:50:00,VALID,916.671,VALID,0,VALID,100,VALID,-0.101885,VALID,18.3318,VALID,113,VALID,0.417259,
2008-07-05, 02:51:00,VALID,916.669,VALID,0,VALID,100,VALID,-0.0679233,VALID,18.2632,VALID,102,VALID,0.738477,
2008-07-05, 02:52:00,VALID,916.664,VALID,0,VALID,100,VALID,-0.0679233,VALID,18.2273,VALID,91,VALID,0.626402,
2008-07-05, 02:53:00,VALID,916.648,VALID,0,VALID,100,VALID,-0.0339617,VALID,18.1891,VALID,86,VALID,0.564977,
2008-07-05, 02:54:00,VALID,916.631,VALID,0,VALID,100,VALID,-0.101885,VALID,18.1469,VALID,86,VALID,0.613582,
2008-07-05, 02:55:00,VALID,916.622,VALID,0,VALID,100,VALID,-0.118866,VALID,18.1277,VALID,86,VALID,0.678779,
2008-07-05, 02:56:00,VALID,916.598,VALID,0,VALID,100,VALID,-0.101885,VALID,18.1013,VALID,86,VALID,0.579649,
2008-07-05, 02:57:00,VALID,916.586,VALID,0,VALID,100,VALID,-0.101885,VALID,18.0823,VALID,87,VALID,0.761719,
2008-07-05, 02:58:00,VALID,916.582,VALID,0,VALID,100,VALID,-0.0849042,VALID,18.0524,VALID,82,VALID,0.644717,
2008-07-05, 02:59:00,VALID,916.593,VALID,0,VALID,100,VALID,-0.0339617,VALID,18.0364,VALID,90,VALID,0.573219,
2008-07-05, 03:00:00,VALID,916.598,VALID,0,VALID,100,VALID,-0.0849042,VALID,18.0234,VALID,96,VALID,0.692882,
2008-07-05, 03:01:00,VALID,916.613,VALID,0,VALID,100,VALID,-0.0849042,VALID,18.0132,VALID,99,VALID,0.0345204,
2008-07-05, 03:02:00,VALID,916.616,VALID,0,VALID,100,VALID,-0.101885,VALID,18.0063,VALID,99,VALID,0,
2008-07-05, 03:03:00,VALID,916.629,VALID,0,VALID,100,VALID,-0.0679233,VALID,18.0232,VALID,99,VALID,0,
2008-07-05, 03:04:00,VALID,916.633,VALID,0,VALID,100,VALID,-0.0679233,VALID,17.9866,VALID,105,VALID,0,
2008-07-05, 03:05:00,VALID,916.626,VALID,0,VALID,100,VALID,-0.101885,VALID,18.0234,VALID,112,VALID,0.874092,
2008-07-05, 03:06:00,VALID,916.633,VALID,0,VALID,100,VALID,-0.0849042,VALID,18.0359,VALID,111,VALID,0.882639,
2008-07-05, 03:07:00,VALID,916.615,VALID,0,VALID,100,VALID,-0.0849042,VALID,18.0457,VALID,109,VALID,1.05521,
2008-07-05, 03:08:00,VALID,916.607,VALID,0,VALID,100,VALID,-0.0679233,VALID,18.0396,VALID,114,VALID,1.02195,
2008-07-05, 03:09:00,VALID,916.607,VALID,0,VALID,100,VALID,-0.0679233,VALID,18.0559,VALID,111,VALID,1.09464,
2008-07-05, 03:10:00,VALID,916.585,VALID,0,VALID,100,VALID,-0.0509425,VALID,18.0686,VALID,103,VALID,0.896076,
2008-07-05, 03:11:00,VALID,916.572,VALID,0,VALID,100,VALID,-0.0849042,VALID,18.0654,VALID,115,VALID,0.998365,
2008-07-05, 03:12:00,VALID,916.561,VALID,0,VALID,100,VALID,-0.101885,VALID,18.0818,VALID,115,VALID,0.854514,
2008-07-05, 03:13:00,VALID,916.561,VALID,0,VALID,100,VALID,-0.118866,VALID,18.0948,VALID,116,VALID,0.824491,
2008-07-05, 03:14:00,VALID,916.534,VALID,0,VALID,100,VALID,-0.0849042,VALID,18.0978,VALID,110,VALID,0.951126,
2008-07-05, 03:15:00,VALID,916.523,VALID,0,VALID,100,VALID,-0.0679233,VALID,18.0718,VALID,96,VALID,0.815039,
2008-07-05, 03:16:00,VALID,916.528,VALID,0,VALID,100,VALID,-0.0679233,VALID,18.0299,VALID,93,VALID,0.891197,
2008-07-05, 03:17:00,VALID,916.53,VALID,0,VALID,100,VALID,-0.101885,VALID,18.0394,VALID,91,VALID,1.02834,
2008-07-05, 03:18:00,VALID,916.53,VALID,0,VALID,100,VALID,-0.0849042,VALID,18.0582,VALID,99,VALID,1.00833,
2008-07-05, 03:19:00,VALID,916.53,VALID,0,VALID,100,VALID,-0.101885,VALID,18.101,VALID,123,VALID,1.25017,
2008-07-05, 03:20:00,VALID,916.533,VALID,0,VALID,100,VALID,-0.0679233,VALID,18.1664,VALID,132,VALID,1.13951,
2008-07-05, 03:21:00,VALID,916.531,VALID,0,VALID,100,VALID,-0.0679233,VALID,18.1881,VALID,134,VALID,1.18845,
2008-07-05, 03:22:00,VALID,916.515,VALID,0,VALID,100,VALID,-0.101885,VALID,18.2505,VALID,136,VALID,1.20675,
2008-07-05, 03:23:00,VALID,916.506,VALID,0,VALID,100,VALID,-0.0849042,VALID,18.2602,VALID,134,VALID,1.20094,
2008-07-05, 03:24:00,VALID,916.517,VALID,0,VALID,100,VALID,-0.0849042,VALID,18.2604,VALID,134,VALID,1.03452,
2008-07-05, 03:25:00,VALID,916.497,VALID,0,VALID,100,VALID,-0.0849042,VALID,18.2537,VALID,132,VALID,0.89881,
2008-07-05, 03:26:00,VALID,916.507,VALID,0,VALID,100,VALID,-0.0679233,VALID,18.2243,VALID,125,VALID,0.737805,
2008-07-05, 03:27:00,VALID,916.508,VALID,0,VALID,100,VALID,-0.101885,VALID,18.1724,VALID,112,VALID,0.698946,
2008-07-05, 03:28:00,VALID,916.515,VALID,0,VALID,100,VALID,-0.135847,VALID,18.1728,VALID,116,VALID,0.853561,
2008-07-05, 03:29:00,VALID,916.523,VALID,0,VALID,100,VALID,-0.101885,VALID,18.1404,VALID,107,VALID,0.574405,
2008-07-05, 03:30:00,VALID,916.512,VALID,0,VALID,100,VALID,-0.101885,VALID,18.0723,VALID,95,VALID,0.50705,
2008-07-05, 03:31:00,VALID,916.517,VALID,0,VALID,100,VALID,-0.0679233,VALID,18.0295,VALID,87,VALID,0.669588,
2008-07-05, 03:32:00,VALID,916.51,VALID,0,VALID,100,VALID,-0.101885,VALID,17.9518,VALID,84,VALID,0.503534,
2008-07-05, 03:33:00,VALID,916.494,VALID,0,VALID,100,VALID,-0.0679233,VALID,17.9058,VALID,84,VALID,0,
2008-07-05, 03:34:00,VALID,916.498,VALID,0,VALID,100,VALID,-0.0679233,VALID,17.8349,VALID,84,VALID,0,
2008-07-05, 03:35:00,VALID,916.494,VALID,0,VALID,100,VALID,-0.0679233,VALID,17.7957,VALID,79,VALID,0,
2008-07-05, 03:36:00,VALID,916.501,VALID,0,VALID,100,VALID,-0.0339617,VALID,17.7856,VALID,78,VALID,0,
2008-07-05, 03:37:00,VALID,916.518,VALID,0,VALID,100,VALID,-0.0339617,VALID,17.8381,VALID,78,VALID,0,
2008-07-05, 03:38:00,VALID,916.532,VALID,0,VALID,100,VALID,-0.101885,VALID,17.8837,VALID,78,VALID,0,
2008-07-05, 03:39:00,VALID,916.531,VALID,0,VALID,100,VALID,-0.101885,VALID,17.9067,VALID,78,VALID,0,
2008-07-05, 03:40:00,VALID,916.545,VALID,0,VALID,100,VALID,-0.0849042,VALID,17.9648,VALID,78,VALID,0,
2008-07-05, 03:41:00,VALID,916.545,VALID,0,VALID,100,VALID,-0.0509425,VALID,18.007,VALID,78,VALID,0,
2008-07-05, 03:42:00,VALID,916.555,VALID,0,VALID,100,VALID,-0.101885,VALID,18.0881,VALID,78,VALID,0,